Location: Habighorst
(52.7089°N, 10.2278°E)
Time: 18:05:00
(UTC+00:00)

NOSS 8 (F) - Visible Passes

Search period start: 11 April 2026 00:00
Search period end: 21 April 2026 00:00
Orbit: 364 x 1524 km, 63.3° (Epoch: 11 April)

Date Brightness Start Highest point End Pass type
(mag) Time Alt. Az. Time Alt. Az. Time Alt. Az.
11 Apr 4.9 01:39:43 56° NNW 01:39:43 56° NNW 01:42:44 10° NE visible
11 Apr 6.6 03:24:55 10° WNW 03:27:04 16° NNW 03:29:02 10° NNE visible
12 Apr 7.2 00:11:01 15° ENE 00:11:01 15° ENE 00:11:41 10° ENE visible
12 Apr 5.5 01:54:58 33° NW 01:55:28 35° NW 01:58:26 10° NE visible
12 Apr 6.9 03:41:38 10° NW 03:43:15 13° N 03:44:47 10° NNE visible
13 Apr 6.6 00:26:14 24° ENE 00:26:14 24° ENE 00:27:36 10° NE visible
13 Apr 6.2 02:10:10 19° WNW 02:11:27 24° NNW 02:14:04 10° NNE visible
14 Apr 5.9 00:41:23 36° NE 00:41:23 36° NE 00:43:22 10° NE visible
14 Apr 6.6 02:25:19 11° WNW 02:27:30 18° NNW 02:29:41 10° NNE visible
15 Apr 5.6 00:56:29 40° N 00:56:29 40° N 00:59:02 10° NE visible
15 Apr 6.9 02:41:45 10° NW 02:43:36 14° NNW 02:45:20 10° NNE visible
15 Apr 7.2 23:27:38 13° ENE 23:27:38 13° ENE 23:28:04 10° NE visible
16 Apr 6.0 01:11:34 28° NW 01:11:51 28° NNW 01:14:38 10° NNE visible
16 Apr 7.0 02:58:19 10° NNW 02:59:45 12° N 03:01:08 10° NNE visible
16 Apr 6.7 23:42:40 22° NE 23:42:40 22° NE 23:43:50 10° NE visible
17 Apr 6.6 01:26:36 17° NW 01:27:49 20° NNW 01:30:12 10° NNE visible
17 Apr 7.0 03:14:35 10° NNW 03:15:55 12° N 03:17:12 10° NNE visible
17 Apr 6.2 23:57:38 32° NNE 23:57:38 32° NNE 23:59:30 10° NE visible
18 Apr 6.9 01:41:42 10° WNW 01:43:50 15° NNW 01:45:47 10° NNE visible
18 Apr 7.0 03:30:29 10° NNW 03:32:02 13° N 03:33:33 10° NE visible
19 Apr 6.0 00:12:33 33° NNW 00:12:33 33° NNW 00:15:04 10° NE visible
19 Apr 7.1 01:58:18 10° NW 01:59:54 13° N 02:01:26 10° NNE visible
19 Apr 6.9 22:43:30 15° NE 22:43:30 15° NE 22:44:09 10° NE visible
20 Apr 6.4 00:27:24 22° NW 00:28:00 23° NNW 00:30:36 10° NNE visible
20 Apr 7.2 02:14:41 10° NNW 02:16:01 12° N 02:17:18 10° NNE visible
20 Apr 6.3 22:58:15 27° NE 22:58:15 27° NE 22:59:48 10° NE visible
